マクノート彗星

378P/McNaught (2020)

English version
Home page
Updated on September 11, 2021

---------------------------------------------------------------------

・ プロフィール

符号 378P/2019 E2
検出日 2019年3月10日
検出光度 21.9等
検出者 E. Schwab (Egelsbach, Germany), D. Abreu (European Space Agency's Optical Ground Station, Tenerife)

・ 写真集

・ 軌道要素

Epoch 2020 Nov. 7.0 TT = JDT 2459160.5
T 2020 Oct. 20.88502 TT                                 Rudenko
q   3.3808591            (2000.0)            P               Q
n   0.06112678     Peri.  194.04863     +0.30501181     +0.89476006
a   6.3823663      Node    94.51328     -0.83912907     +0.41445212
e   0.4702812      Incl.   19.09661     -0.45036675     -0.16623438
P  16.1
From 214 observations 2003 May 30-2021 July 16, mean residual 1".0.

・ 光度変化

        10.0 + 5 logΔ + 7.5 log r(t - 1000)

---------------------------------------------------------------------

軌道要素はM.P.E.C. 2021-O56に掲載されたものです。
光度グラフはComet for Windowsで作成したものです。

---------------------------------------------------------------------

Copyright(C) Seiichi Yoshida (comet@aerith.net). All rights reserved.